Flag for Germany Weather past 2 weeks in Titisee-Neustadt, Baden-Württemberg, Germany

Now
35 °F

Light freezing rain. Low clouds.


Feels Like: 29 °F
Forecast: 23 / 30 °F
Wind: 7 mph from Southwest

Location: Freiburg

Current Time: Jan 29, 2015 at 5:39:59 AM

Latest Report: Jan 29, 2015 at 5:00 AM


Visibility: 13 mi

Pressure: 29.68 "Hg

Humidity: 93%

Dew point: 33 °F

Location of Titisee-NeustadtLocation

Historic Weather in Titisee-Neustadt — Graph

°F

Titisee-Neustadt temperature yesterday

Maximum temperature yesterday: 43 °F (at 11:00 PM)
Minimum temperature yesterday: 30 °F (at 5:00 AM)
Average temperature yesterday: 38 °F

Past Weeks' High & Low Weather Summary

 TemperatureHumidityPressure
High56 °F (Jan 15, 2:00 PM)100% (Jan 18, 11:00 PM)30.49 "Hg (Jan 18, 11:00 PM)
Low25 °F (Jan 19, 5:00 AM)41% (Jan 15, 2:00 PM)29.66 "Hg (Jan 29, 12:00 AM)
Average37 °F87%30.06 "Hg
* Reported Jan 14 3:00 AM — Jan 29 3:00 AM, Titisee-Neustadt, Weather by CustomWeather, © 2014

Note: Actual official high and low records may vary slightly from our data, if they occured in-between our weather recording intervals... More about our weather records

Advertising

Titisee-Neustadt weather history for previous 24 hours

 ConditionsComfort  
Time TempWeatherWind HumidityBarometerVisibility
3:00 AM
Jan 29
38 °FPassing clouds.2 mph72%29.69 "Hg43 mi
2:00 AM39 °FOvercast.3 mph75%29.69 "Hg43 mi
12:00 AM43 °FOvercast.9 mph81%29.66 "Hg43 mi
11:00 PM
Jan 28
43 °FOvercast.9 mph78%29.67 "Hg43 mi
9:00 PM43 °FOvercast.9 mph69%29.73 "Hg43 mi
8:00 PM42 °FOvercast.12 mph66%29.77 "Hg43 mi
6:00 PM43 °FPassing clouds.10 mph59%29.85 "Hg43 mi
5:00 PM41 °FOvercast.8 mph68%29.90 "Hg34 mi
3:00 PM42 °FOvercast.9 mph64%29.97 "Hg22 mi
2:00 PM40 °FOvercast.9 mph69%30.03 "Hg22 mi
12:00 PM40 °FOvercast.7 mph75%30.12 "Hg17 mi
11:00 AM39 °FOvercast.8 mph77%30.15 "Hg19 mi
9:00 AM35 °FOvercast.3 mph84%30.19 "Hg16 mi
8:00 AM34 °FOvercast.2 mph84%30.20 "Hg18 mi
6:00 AM33 °FFog.2 mph97%30.21 "Hg3 mi
5:00 AM30 °FFog.1 mph99%30.24 "Hg2 mi
Weather by CustomWeather, © 2014

See weather overviewHow to use our weather pages